Theta_e
324 319 313 311 299 299 294 296 303 302 303 310 313 312 310 315 312 307 328 335 338 339 345 350 349 351 351 351 349 349 349 351 351 351 351 350 350 349 348 348 347 347 347 346 344 342 340 338 337
318 309 311 306 294 291 292 299 299 303 307 305 308 308 309 310 319 322 328 335 339 341 345 348 346 349 350 349 349 349 349 350 350 349 351 349 348 348 347 346 346 345 345 343 341 338 335 334 334
310 308 302 298 293 290 292 298 300 304 308 305 305 308 309 309 318 324 331 337 340 342 345 347 345 348 348 348 348 348 348 349 349 349 348 347 347 346 345 345 343 342 340 338 336 333 330 328 328
306 304 303 293 291 295 297 298 301 300 304 308 307 304 308 313 320 326 332 339 340 342 345 343 345 348 347 347 347 347 347 347 348 349 348 346 346 345 342 340 339 337 335 333 330 328 326 325 324
305 302 293 290 291 296 299 301 299 298 300 301 302 301 304 311 320 329 334 338 339 340 343 347 344 345 346 345 346 346 346 347 347 346 345 344 343 341 339 337 335 332 330 327 326 325 324 323 322
297 299 290 289 291 295 298 300 299 298 301 301 300 302 304 316 321 330 335 335 338 341 344 345 338 339 341 342 343 344 344 345 345 345 343 342 340 338 336 333 330 328 326 325 324 323 322 321 319
296 293 290 291 292 294 296 300 298 298 299 299 303 300 305 309 323 332 334 336 339 341 342 342 340 337 334 335 338 339 340 341 342 342 340 338 337 335 333 329 327 325 323 323 322 321 320 319 317
298 295 290 292 291 291 298 298 299 299 299 305 304 298 300 309 324 332 333 335 337 338 341 340 340 341 340 338 331 333 334 336 336 335 332 330 330 329 327 325 324 323 322 321 319 319 317 316 315
300 290 288 290 292 293 298 296 299 300 300 300 302 303 307 313 327 327 328 331 332 334 337 339 338 338 338 336 330 329 329 329 328 326 323 324 328 325 322 321 322 321 320 318 316 314 313 312 310
294 290 291 296 297 295 297 297 298 297 298 299 300 304 311 319 323 322 324 326 328 330 334 335 337 334 333 331 332 334 329 330 330 329 328 326 323 321 319 317 319 320 317 315 312 309 306 306 307
295 291 295 296 297 297 295 296 298 297 296 300 299 302 309 316 317 321 324 327 329 332 331 334 332 333 331 329 330 326 323 326 329 327 324 321 318 316 316 316 315 315 312 310 307 305 306 306 307
290 294 295 297 298 295 293 296 295 297 298 302 303 303 309 312 316 319 320 323 326 326 327 331 331 329 328 328 327 325 321 321 325 323 320 316 314 313 313 312 312 310 307 306 307 306 306 306 305
292 292 295 296 296 296 296 294 294 296 300 302 301 303 308 310 314 318 321 322 324 323 327 331 329 327 325 324 325 322 321 320 323 320 316 313 311 310 309 308 307 306 306 306 305 305 305 305 304
295 294 294 295 295 295 293 294 295 297 300 298 299 300 302 309 312 316 320 321 321 323 325 327 328 327 323 322 320 320 318 318 319 319 314 310 309 308 307 306 306 305 305 305 305 304 304 304 304
293 289 292 293 294 294 295 291 292 297 299 297 298 299 301 304 310 313 317 318 321 322 324 323 325 326 322 320 318 317 315 312 313 316 313 308 307 307 307 306 305 305 305 304 304 303 303 303 302
285 287 283 289 292 294 294 285 293 297 297 297 297 299 300 300 303 310 315 318 320 323 322 321 320 323 321 318 316 314 312 311 310 311 311 308 307 307 306 305 304 304 304 303 303 302 302 302 302
282 277 281 285 291 291 291 287 293 297 296 296 297 298 299 301 302 304 311 316 319 321 322 320 319 318 321 318 316 314 311 309 308 308 309 307 306 306 305 305 304 303 303 302 302 301 302 301 301
275 277 278 278 285 288 287 288 292 295 295 295 296 298 298 298 301 304 306 314 317 320 321 320 317 317 318 317 314 313 314 311 307 306 307 307 306 305 305 304 303 303 302 302 301 301 300 301 301
278 278 277 282 285 283 284 286 289 293 294 295 296 297 298 299 302 303 304 312 315 318 319 318 314 315 315 311 310 309 307 310 305 305 306 306 306 305 304 303 302 302 301 301 301 300 299 298 299
277 275 276 280 284 284 284 284 288 291 292 294 294 296 297 299 300 301 301 306 312 314 317 317 314 314 313 312 312 314 313 312 309 304 304 305 305 305 303 303 302 301 301 300 299 299 297 298 298
276 275 275 276 280 283 283 282 285 289 292 293 295 296 297 297 299 301 298 299 306 310 315 316 314 314 313 314 313 307 307 302 304 300 301 303 303 303 303 302 302 301 301 299 299 298 298 297 297
272 279 278 276 275 272 282 273 283 287 288 291 293 295 296 297 299 300 301 299 300 306 312 315 315 314 313 314 310 306 306 304 304 306 305 303 302 301 302 302 301 300 300 299 298 298 298 298 295
275 279 277 277 275 274 276 273 279 286 285 288 292 294 296 297 298 298 300 301 301 302 308 312 313 313 313 312 310 307 309 312 311 310 306 303 301 302 301 300 299 299 299 299 298 296 297 297 297
281 278 277 278 276 268 273 273 277 283 285 288 291 293 295 296 298 299 300 301 302 302 303 307 310 311 312 311 310 307 309 311 307 306 303 301 301 300 299 299 299 299 298 298 297 297 296 296 296
278 275 268 267 267 266 275 273 276 284 288 290 290 292 295 296 297 297 298 299 300 300 300 303 307 308 310 309 309 308 310 311 306 304 302 300 298 298 298 298 297 297 297 297 296 295 295 295 294
277 275 269 263 265 269 275 270 277 286 290 292 293 294 294 294 295 296 297 298 299 299 300 301 303 307 309 307 308 308 309 310 307 305 304 301 299 299 299 297 297 296 296 295 295 295 295 294 295
277 273 278 271 271 271 274 276 280 284 285 287 289 290 290 290 290 290 291 292 292 294 295 297 300 305 307 306 306 306 306 308 306 305 304 302 301 299 294 294 294 294 293 293 292 292 288 289 290
279 281 272 272 265 265 272 274 276 274 275 279 281 284 285 286 287 287 287 287 288 288 290 292 297 300 304 304 304 304 304 304 303 301 300 298 296 295 290 289 288 288 288 287 288 287 286 286 288
276 276 277 276 274 268 268 271 275 274 275 275 280 281 282 283 284 283 283 283 283 284 284 286 288 288 293 299 301 301 301 301 293 293 294 290 289 289 289 288 288 287 287 286 286 287 287 287 287
277 278 277 271 270 274 273 271 277 275 276 277 277 281 281 281 282 281 281 282 283 283 284 283 284 286 288 290 294 292 293 291 288 289 288 288 288 288 288 288 288 287 287 286 287 286 286 286 286
Wind_Speed
8 6 3 5 8 8 20 16 17 10 5 12 3 13 14 18 12 3 2 11 5 19 20 20 17 19 19 19 18 16 15 16 18 17 18 17 16 16 16 16 14 15 15 15 13 14 11 9 9
7 5 4 3 10 14 20 22 22 17 10 3 8 9 9 15 20 4 5 8 12 18 19 20 16 18 18 19 17 16 15 14 17 18 18 17 17 17 17 17 16 16 15 14 14 11 11 10 9
7 4 5 7 12 19 20 16 17 18 16 8 6 5 8 6 5 2 3 13 16 18 19 19 17 18 19 18 16 15 14 14 16 16 18 18 17 18 18 18 17 16 15 13 12 11 11 11 10
6 5 5 12 22 28 29 5 10 6 11 16 12 11 5 4 1 2 9 14 18 17 17 17 18 20 21 18 16 15 14 14 15 17 18 19 19 19 19 18 17 16 14 13 12 12 11 11 10
4 4 13 17 28 28 21 21 9 7 4 7 13 15 9 3 4 5 12 15 17 16 16 18 19 20 20 20 16 14 13 14 15 15 20 20 19 18 18 17 15 15 14 12 12 12 12 11 11
7 6 11 23 28 28 24 17 19 16 12 5 10 10 13 3 9 9 13 15 15 17 14 18 16 17 20 17 14 13 13 14 15 16 17 18 17 16 16 16 16 14 13 12 12 12 11 11 11
15 12 23 26 26 28 27 18 22 20 21 19 2 9 5 7 8 11 13 12 14 15 15 13 15 15 11 15 13 12 12 12 15 16 15 14 15 16 16 15 14 13 12 13 12 12 11 11 11
10 11 26 27 24 32 21 22 10 22 28 19 10 11 13 6 15 13 10 11 12 10 15 15 15 18 16 16 16 11 11 10 11 13 12 12 12 12 12 11 12 13 12 13 12 12 12 11 11
7 12 21 33 30 23 17 21 16 6 20 7 10 20 5 4 15 13 9 8 9 8 10 13 14 14 14 13 13 13 11 11 13 13 13 13 10 12 14 9 11 13 13 13 12 12 12 12 11
15 18 35 31 22 20 24 20 11 10 17 20 15 11 3 12 14 17 16 15 15 14 13 11 13 13 12 9 13 13 10 9 10 11 14 9 11 9 9 9 9 11 12 12 12 11 9 4 3
15 26 30 27 20 24 22 24 15 23 23 15 19 20 11 13 14 17 20 23 25 19 11 14 13 14 13 10 8 6 5 6 9 12 11 9 8 9 8 7 7 7 5 5 6 6 3 5 3
20 25 29 27 25 15 19 22 25 20 21 5 11 2 14 16 18 19 19 19 18 15 14 16 13 12 12 9 8 10 8 7 9 9 11 8 6 8 7 6 7 6 4 5 4 3 4 5 5
23 30 27 23 20 24 23 27 21 24 23 21 11 6 11 14 17 17 16 13 12 13 18 18 14 13 11 10 9 9 10 8 11 11 11 9 8 8 7 7 6 6 5 5 4 4 4 4 4
19 23 25 26 26 24 23 26 24 33 24 20 16 15 15 15 17 14 17 19 16 14 17 17 17 16 13 11 11 9 8 9 9 10 11 12 9 8 8 7 7 6 6 5 5 4 4 3 3
25 27 26 22 22 18 16 33 40 28 22 17 23 21 16 15 13 17 19 19 19 16 14 17 17 16 15 14 12 8 8 8 7 9 12 13 11 11 9 8 7 7 5 6 5 5 4 4 3
15 15 28 28 27 27 22 35 27 27 29 27 23 22 22 20 18 18 17 17 18 18 20 15 13 15 15 12 11 8 8 7 6 7 9 12 12 12 10 8 7 7 6 6 5 5 5 4 3
19 23 26 26 21 20 32 34 28 24 13 21 24 25 24 23 22 20 18 17 17 19 19 18 16 15 17 13 10 10 11 8 8 7 9 13 12 12 10 8 7 9 6 6 6 5 4 3 3
21 25 27 30 24 20 28 29 24 18 26 27 24 23 23 23 27 21 17 16 16 17 19 19 15 15 15 10 8 6 9 10 8 8 10 15 12 13 11 9 9 9 7 6 6 6 4 2 2
25 27 30 23 26 29 29 26 25 22 22 19 20 21 21 22 21 15 13 14 14 17 19 19 18 18 14 10 11 9 10 11 9 8 11 15 13 14 13 9 10 10 9 9 8 6 6 3 3
22 25 29 30 29 24 28 31 27 24 24 23 24 22 19 18 18 11 11 14 16 18 19 19 18 16 16 12 12 9 11 10 9 6 9 14 15 15 13 12 11 12 9 10 9 8 5 3 4
20 21 24 29 28 24 21 31 28 25 24 24 24 23 23 23 21 18 13 14 16 17 18 19 20 19 19 17 10 3 4 3 7 8 9 13 15 14 14 15 12 12 10 9 10 9 9 6 4
23 26 22 23 24 21 17 21 21 23 25 25 24 21 23 22 18 18 15 16 15 16 15 17 18 20 17 18 14 18 13 11 11 11 11 12 17 16 15 15 14 13 9 10 10 9 8 6 6
20 19 20 21 20 21 23 13 16 22 24 25 26 25 24 20 17 17 16 13 14 13 15 16 17 17 17 18 18 15 15 12 10 10 16 15 14 15 15 15 14 13 10 10 11 11 10 7 6
15 11 16 13 13 16 20 18 14 14 22 25 25 26 24 23 19 19 19 16 14 13 13 13 16 17 19 19 21 22 22 18 12 14 13 13 11 11 14 14 13 13 11 12 10 10 10 8 7
13 10 6 8 9 13 18 21 21 9 12 23 23 22 18 20 19 17 17 13 11 12 14 13 17 19 20 22 22 23 23 22 19 18 14 16 12 11 15 16 14 12 13 12 11 11 10 10 8
11 15 9 9 12 14 19 13 22 25 21 9 11 13 13 5 6 10 9 6 7 8 11 14 17 17 18 19 22 20 22 15 14 16 13 13 14 14 16 15 14 14 14 12 12 8 8 9 7
2 15 18 10 3 9 10 14 26 11 15 14 13 12 3 3 4 4 7 6 7 6 5 9 13 14 16 18 15 17 16 18 17 17 15 12 14 11 14 15 14 13 12 12 11 7 7 6 6
10 1 5 6 5 12 6 5 5 9 11 10 10 8 7 6 6 7 7 8 9 9 9 9 10 11 12 14 14 13 15 15 12 11 14 13 10 12 14 14 13 12 11 11 10 7 7 8 6
5 6 7 5 8 12 7 6 5 5 6 7 9 10 10 9 9 8 8 8 8 8 8 8 5 4 6 9 10 11 11 12 7 8 8 9 10 13 15 15 15 14 13 11 10 9 10 10 9
13 6 12 5 7 4 6 5 9 8 8 11 11 11 9 9 9 8 8 8 8 8 8 9 7 4 6 5 7 6 7 8 9 10 12 12 13 12 14 14 14 14 14 13 13 12 10 11 10
Wind_Direction
174 180 197 199 207 238 236 231 240 224 223 217 245 210 227 223 196 211 17 194 195 165 163 169 169 164 161 155 156 160 163 158 150 149 143 141 138 137 137 131 130 129 127 117 112 95 109 110 109
162 154 186 210 240 215 240 229 227 227 223 172 215 224 236 234 241 280 144 174 173 162 162 168 164 160 157 156 154 158 158 146 148 154 145 143 144 141 138 133 125 120 113 110 105 115 113 107 100
158 242 203 213 229 231 244 219 244 234 222 185 212 241 249 234 207 239 139 164 168 165 165 165 162 155 155 156 156 159 153 141 142 149 138 143 144 141 131 120 115 112 112 116 122 118 110 103 96
174 195 229 235 222 228 241 208 227 245 226 238 237 258 212 275 260 223 159 168 167 167 166 146 160 153 146 145 145 147 149 144 133 129 134 137 134 125 120 120 115 113 126 129 126 118 110 104 99
197 233 228 235 236 243 236 250 218 215 206 207 204 237 239 206 184 180 169 166 168 170 168 159 148 148 144 144 148 149 147 149 137 134 130 131 131 131 120 115 126 133 131 130 123 116 106 96 93
203 254 228 233 234 236 238 231 234 237 237 171 200 237 236 121 181 175 164 174 173 167 166 156 153 151 145 140 140 150 150 144 136 134 131 134 126 118 130 139 138 137 135 131 121 115 107 100 96
230 217 239 243 243 239 232 239 231 226 232 224 178 214 224 207 189 163 169 169 167 170 163 156 156 152 139 140 145 150 142 133 133 134 133 123 129 138 140 140 138 137 134 127 120 112 108 101 96
234 243 248 245 246 247 242 231 246 233 240 232 231 237 244 189 167 158 161 159 161 175 171 163 161 164 165 153 140 135 135 137 124 120 117 121 120 124 122 125 138 136 134 122 116 112 105 99 94
221 238 239 239 235 239 243 241 220 253 241 210 213 240 282 137 159 156 156 154 157 177 177 167 165 165 163 156 144 137 131 124 112 107 107 131 144 146 142 121 138 140 131 124 121 112 104 97 88
210 224 239 238 245 247 245 237 227 216 221 230 228 220 184 162 172 180 177 181 183 179 181 170 169 161 154 155 149 148 139 148 153 152 149 146 146 147 143 121 121 125 124 119 115 112 115 161 119
227 236 238 247 251 254 255 257 253 251 248 234 228 223 186 172 195 194 198 194 191 188 180 182 164 164 157 161 153 136 131 146 158 162 159 152 144 149 151 139 142 134 120 131 138 141 111 98 106
248 248 249 258 248 249 246 258 250 242 245 240 242 270 195 192 194 205 205 206 194 181 187 184 169 163 163 159 165 152 148 152 161 166 160 158 157 163 158 157 154 152 164 147 142 116 104 101 90
238 243 252 253 254 254 256 254 255 251 243 260 248 201 207 210 210 213 206 205 199 195 194 191 170 168 162 164 163 164 158 162 169 166 168 169 168 171 161 156 161 160 161 153 143 131 129 122 119
253 246 250 249 248 249 251 253 246 247 244 251 259 249 239 217 215 207 206 210 204 201 202 194 187 174 165 170 170 169 161 160 165 174 173 174 173 172 169 166 166 166 167 156 153 149 148 147 161
269 264 251 251 245 240 253 250 240 250 249 253 243 245 243 231 221 212 210 209 207 209 197 194 194 181 176 174 166 169 164 160 164 174 178 177 178 176 174 172 172 165 157 149 147 150 157 169 169
267 267 251 245 242 240 231 252 242 238 241 241 245 245 242 238 229 221 220 210 205 205 206 186 189 194 183 175 170 164 164 162 169 169 179 184 181 178 177 176 175 161 159 166 172 170 168 176 178
242 249 249 248 231 239 228 254 249 251 252 234 235 234 239 247 236 229 222 212 205 206 205 195 187 195 196 179 173 170 169 175 171 173 184 186 186 181 178 178 171 169 165 175 177 173 184 175 175
246 240 244 253 251 240 245 244 246 238 229 229 226 225 228 235 240 235 221 209 205 205 207 200 190 196 194 180 164 167 179 187 183 185 188 183 187 185 184 178 168 172 172 177 182 167 149 156 164
256 264 268 269 250 246 254 250 246 241 242 238 234 234 230 233 242 245 206 202 206 210 210 201 194 194 185 178 175 178 190 194 185 189 184 190 188 189 188 180 171 176 183 183 179 155 159 158 176
261 253 254 260 261 269 249 246 249 244 238 243 243 240 238 241 243 237 209 202 204 208 209 202 201 191 194 187 189 196 199 196 191 184 187 196 192 187 187 181 182 185 181 177 175 174 159 157 185
255 250 251 250 255 254 281 257 248 239 243 245 245 246 248 244 244 245 214 207 210 210 205 199 200 199 197 195 182 141 118 104 180 183 192 202 196 187 188 188 184 184 186 180 179 181 181 173 183
255 245 250 261 253 250 243 266 246 233 228 233 235 233 239 242 239 245 240 221 210 211 205 204 197 198 195 189 181 185 191 189 199 201 195 190 192 193 193 189 187 184 185 182 179 180 187 182 181
245 259 257 251 252 254 237 270 274 239 217 221 234 236 233 231 228 234 238 231 215 203 198 202 199 197 191 191 190 194 206 209 193 195 189 193 191 194 189 190 188 187 185 185 179 177 187 192 190
250 243 244 262 246 241 237 229 249 230 216 219 224 227 229 234 235 238 243 241 225 206 199 197 198 201 194 194 195 199 204 201 185 187 184 187 186 184 186 187 186 185 186 182 183 183 188 191 201
229 215 230 222 219 249 237 224 239 266 267 220 227 237 237 233 234 241 240 244 237 217 201 195 198 203 197 196 198 201 207 207 197 186 185 177 179 188 189 183 180 181 183 182 176 180 186 190 194
216 208 220 227 227 255 224 230 228 224 242 251 241 237 258 302 291 254 252 257 253 233 222 210 207 208 200 202 206 206 205 205 201 197 190 186 186 188 179 182 180 178 176 174 176 176 180 185 189
246 212 225 265 269 274 236 221 235 283 266 272 256 259 264 44 30 356 345 342 331 317 304 252 223 215 207 206 206 207 208 208 199 199 196 189 182 178 171 176 171 167 167 166 165 165 159 165 166
231 131 167 195 233 243 244 215 91 12 2 15 25 30 8 355 355 349 348 347 342 333 319 300 262 230 213 204 205 206 205 206 202 187 189 183 172 161 162 162 159 154 153 152 158 153 153 157 170
352 244 232 262 228 218 234 87 10 2 353 338 27 19 5 358 355 352 349 344 334 337 337 320 289 234 203 196 198 202 200 198 157 169 180 156 145 156 164 168 163 161 159 159 159 163 161 168 172
343 308 227 237 222 228 299 78 5 17 15 20 13 11 14 4 351 353 353 350 351 353 350 342 334 278 211 173 170 162 154 149 155 169 156 158 162 165 167 166 165 162 162 164 167 164 167 173 175